Погода в Найхине

Россия / Хабаровский край     49°16′52″N   136°27′43″E
темп.,
°C
ветер,
м/с
пор.,
м/с
влажн.,
%
обл.,
%
осадки,
мм/ч
давл.,
гПа
погр.,
м
8 августа, пн
пн801:00+20ююз51298100 4.8 1000380
04:00+19юв3799100 11.8 998249
07:00+19ююв2699100 2.6 997209
10:00+19ю41199100 6.8 997551
13:00+21ююз589683 2.6 996532
16:00+22юз47939 6.0 994485
19:00+20юз48941 2.0 995244
22:00+18ююз411940 2.6 996220
9 августа, вт
вт901:00+16ююз48961 0.0 997141
04:00+14ююз48956 0.0 997148
07:00+15ююз59914 0.0 998201
10:00+20юз59695 0.0 998534
13:00+23юз610575 0.0 9961065
16:00+23ююз611605 0.1 9951300
19:00+19зюз5128349 2.9 995452
22:00+15ююз2292100 5.0 99624
10 августа, ср
ср1001:00+15ю5129472 0.1 996284
04:00+14ююз5139343 0.1 996344
07:00+14ю4109196 0.0 997249
10:00+19ю477447 0.1 996519
13:00+20ююз61082100 4.5 994777
16:00+17зюз81390100 11.9 994568
19:00+17юз510845 1.3 996571
22:00+15ююз41090100 1.3 998266
11 августа, чт
чт1101:00+14ю41095100 0.3 997286
04:00+14ююз5119795 1.4 997415
07:00+14ююз51195100 0.1 998469
10:00+17ююз6986100 0.1 999649
13:00+17ююз6988100 1.4 999846
16:00+18ююз5873100 2.3 999852
19:00+18ю48813 0.1 999390
22:00+14ю37950 0.4 1000114
12 августа, пт
пт1201:00+13ю389791 0.1 1001166
04:00+13ю389774 0.1 1001174
07:00+13ююв259669 0.0 1002160
10:00+18ююз2478100 0.0 1002529
13:00+20з2274100 0.5 1002734
16:00+21зсз1267100 1.1 1002853
19:00+19ююз11846 0.5 100318
22:00+16ю229399 0.5 100416